When you browse on this site, cookies collect data to enhance your experience and personalize the content and advertising you see.
Visit our Privacy Policy to learn more. By continuing to use the site, you agree to this use of cookies and data.
  • In Sweden
  • List of Countries
  • For 7 days
  • Water Temperature
  • Weather Map
  • Weather Widgets
  • user-avatar
    Login

    Hourly Weather Chesham

    Today, 21 September, Saturday

    Time Temperature Precipitation Wind Pressure Humidity
    00:00 +13°C° 0 mm 4 mps 749 mmHg 64%
    01:00 +13°C° 0 mm 4 mps 749 mmHg 65%
    02:00 +12°C° 0 mm 4 mps 748 mmHg 65%
    03:00 +12°C° 0 mm 4 mps 748 mmHg 66%
    04:00 +12°C° 0 mm 4 mps 747 mmHg 67%
    05:00 +11°C° 0 mm 4 mps 747 mmHg 67%
    06:00 +11°C° 0 mm 4 mps 746 mmHg 68%
    07:00 +12°C° 0 mm 5 mps 746 mmHg 65%
    08:00 +14°C° 0 mm 5 mps 746 mmHg 62%
    09:00 +15°C° 0 mm 5 mps 746 mmHg 58%
    10:00 +17°C° 0 mm 5 mps 746 mmHg 55%
    11:00 +19°C° 0 mm 5 mps 745 mmHg 52%
    12:00 +21°C° 0 mm 5 mps 745 mmHg 50%
    13:00 +22°C° 0 mm 5 mps 744 mmHg 50%
    14:00 +22°C° 0 mm 5 mps 744 mmHg 51%
    15:00 +23°C° 0 mm 5 mps 743 mmHg 52%
    16:00 +22°C° 0 mm 5 mps 743 mmHg 57%
    17:00 +20°C° 0 mm 4 mps 742 mmHg 62%
    18:00 +19°C° 0 mm 4 mps 742 mmHg 67%
    19:00 +19°C° 0 mm 4 mps 742 mmHg 68%
    20:00 +18°C° 0 mm 4 mps 742 mmHg 69%
    21:00 +18°C° 0 mm 4 mps 741 mmHg 70%
    22:00 +18°C° 0 mm 4 mps 741 mmHg 71%
    23:00 +18°C° 0 mm 3 mps 741 mmHg 73%

    Tomorrow, 22 September, Sunday

    Time Temperature Precipitation Wind Pressure Humidity
    00:00 +18°C° 0 mm 3 mps 740 mmHg 75%
    01:00 +18°C° 0.1 mm 3 mps 740 mmHg 77%
    02:00 +18°C° 0.1 mm 3 mps 739 mmHg 79%
    03:00 +18°C° 0.1 mm 3 mps 739 mmHg 81%
    04:00 +17°C° 0.1 mm 3 mps 739 mmHg 84%
    05:00 +17°C° 0.1 mm 3 mps 738 mmHg 86%
    06:00 +17°C° 0.1 mm 3 mps 738 mmHg 89%
    07:00 +18°C° 0 mm 4 mps 738 mmHg 87%
    08:00 +19°C° 0 mm 5 mps 738 mmHg 84%
    09:00 +20°C° 0 mm 6 mps 738 mmHg 82%
    10:00 +17°C° 0.9 mm 5 mps 738 mmHg 83%
    11:00 +17°C° 0.9 mm 4 mps 738 mmHg 84%
    12:00 +14°C° 0.9 mm 3 mps 739 mmHg 86%
    13:00 +15°C° 0.1 mm 4 mps 739 mmHg 81%
    14:00 +16°C° 0.1 mm 5 mps 739 mmHg 75%
    15:00 +17°C° 0.1 mm 6 mps 739 mmHg 70%
    16:00 +17°C° 0 mm 5 mps 739 mmHg 73%
    17:00 +16°C° 0 mm 5 mps 739 mmHg 76%
    18:00 +15°C° 0 mm 4 mps 738 mmHg 79%
    19:00 +14°C° 0 mm 4 mps 739 mmHg 82%
    20:00 +14°C° 0 mm 4 mps 739 mmHg 86%
    21:00 +13°C° 0 mm 4 mps 740 mmHg 90%
    22:00 +13°C° 0 mm 4 mps 740 mmHg 90%
    23:00 +12°C° 0 mm 5 mps 740 mmHg 91%

    Day after tomorrow, 23 September, Monday

    Time Temperature Precipitation Wind Pressure Humidity
    00:00 +12°C° 0 mm 5 mps 740 mmHg 91%
    01:00 +12°C° 0 mm 5 mps 741 mmHg 89%
    02:00 +10°C° 0 mm 5 mps 741 mmHg 87%
    03:00 +10°C° 0 mm 5 mps 741 mmHg 85%
    04:00 +10°C° 0 mm 5 mps 742 mmHg 86%
    05:00 +10°C° 0 mm 4 mps 742 mmHg 88%
    06:00 +10°C° 0 mm 3 mps 742 mmHg 90%
    07:00 +12°C° 0 mm 4 mps 742 mmHg 85%
    08:00 +13°C° 0 mm 4 mps 743 mmHg 81%
    09:00 +15°C° 0 mm 5 mps 743 mmHg 76%
    10:00 +16°C° 0.2 mm 6 mps 743 mmHg 70%
    11:00 +17°C° 0.2 mm 6 mps 743 mmHg 65%
    12:00 +18°C° 0.2 mm 7 mps 743 mmHg 59%
    13:00 +17°C° 0.1 mm 7 mps 742 mmHg 63%
    14:00 +16°C° 0.1 mm 6 mps 742 mmHg 67%
    15:00 +16°C° 0.1 mm 6 mps 741 mmHg 72%
    16:00 +15°C° 1.3 mm 6 mps 741 mmHg 78%
    17:00 +14°C° 1.3 mm 6 mps 740 mmHg 84%
    18:00 +14°C° 1.3 mm 6 mps 740 mmHg 90%
    19:00 +14°C° 1.2 mm 6 mps 740 mmHg 91%
    20:00 +15°C° 1.2 mm 6 mps 740 mmHg 92%
    21:00 +15°C° 1.2 mm 6 mps 739 mmHg 93%
    22:00 +15°C° 1.2 mm 6 mps 739 mmHg 93%
    23:00 +15°C° 1.2 mm 5 mps 739 mmHg 93%

    24 September, Tuesday

    Time Temperature Precipitation Wind Pressure Humidity
    00:00 +16°C° 1.2 mm 5 mps 739 mmHg 93%
    01:00 +16°C° 0.2 mm 5 mps 738 mmHg 92%
    02:00 +16°C° 0.2 mm 5 mps 738 mmHg 92%
    03:00 +16°C° 0.2 mm 5 mps 738 mmHg 92%
    04:00 +15°C° 0.3 mm 5 mps 737 mmHg 93%
    05:00 +15°C° 0.3 mm 4 mps 737 mmHg 94%
    06:00 +15°C° 0.3 mm 4 mps 736 mmHg 94%
    07:00 +15°C° 2.8 mm 5 mps 736 mmHg 93%
    08:00 +15°C° 2.8 mm 6 mps 736 mmHg 91%
    09:00 +16°C° 2.8 mm 6 mps 736 mmHg 89%
    10:00 +17°C° 0.4 mm 7 mps 736 mmHg 82%
    11:00 +17°C° 0.4 mm 7 mps 736 mmHg 75%
    12:00 +18°C° 0.4 mm 8 mps 736 mmHg 68%
    13:00 +18°C° 0.1 mm 8 mps 736 mmHg 68%
    14:00 +17°C° 0.1 mm 8 mps 736 mmHg 68%
    15:00 +17°C° 0.1 mm 8 mps 736 mmHg 67%
    16:00 +16°C° 0.1 mm 8 mps 735 mmHg 72%
    17:00 +15°C° 0.1 mm 8 mps 735 mmHg 76%
    18:00 +13°C° 0.1 mm 8 mps 735 mmHg 80%
    19:00 +14°C° 0.1 mm 7 mps 735 mmHg 81%
    20:00 +14°C° 0.1 mm 7 mps 734 mmHg 83%
    21:00 +14°C° 0.1 mm 7 mps 734 mmHg 84%
    22:00 +14°C° 0 mm 7 mps 734 mmHg 83%
    23:00 +12°C° 0 mm 8 mps 733 mmHg 82%

    25 September, Wednesday

    Time Temperature Precipitation Wind Pressure Humidity
    00:00 +12°C° 0 mm 8 mps 733 mmHg 81%
    01:00 +12°C° 0.1 mm 8 mps 733 mmHg 83%
    02:00 +12°C° 0.1 mm 7 mps 733 mmHg 84%
    03:00 +12°C° 0.1 mm 7 mps 733 mmHg 86%
    04:00 +12°C° 0.1 mm 7 mps 733 mmHg 87%
    05:00 +12°C° 0.1 mm 7 mps 734 mmHg 88%
    06:00 +11°C° 0.1 mm 6 mps 734 mmHg 89%
    07:00 +13°C° 0.8 mm 6 mps 734 mmHg 88%
    08:00 +13°C° 0.8 mm 6 mps 735 mmHg 86%
    09:00 +12°C° 0.8 mm 7 mps 735 mmHg 85%
    10:00 +14°C° 0.6 mm 7 mps 736 mmHg 81%
    11:00 +15°C° 0.6 mm 8 mps 736 mmHg 78%
    12:00 +15°C° 0.6 mm 8 mps 736 mmHg 74%
    13:00 +16°C° 0.3 mm 8 mps 736 mmHg 73%
    14:00 +16°C° 0.3 mm 8 mps 736 mmHg 73%
    15:00 +16°C° 0.3 mm 8 mps 736 mmHg 72%
    16:00 +15°C° 0.6 mm 6 mps 736 mmHg 79%
    17:00 +14°C° 0.6 mm 5 mps 736 mmHg 85%
    18:00 +13°C° 0.6 mm 4 mps 736 mmHg 92%
    19:00 +13°C° 0.8 mm 3 mps 736 mmHg 94%
    20:00 +13°C° 0.8 mm 3 mps 736 mmHg 95%
    21:00 +14°C° 0.8 mm 2 mps 735 mmHg 96%
    22:00 +14°C° 0.6 mm 3 mps 735 mmHg 95%
    23:00 +14°C° 0.6 mm 4 mps 735 mmHg 94%

    26 September, Thursday

    Time Temperature Precipitation Wind Pressure Humidity
    00:00 +14°C° 0.6 mm 4 mps 734 mmHg 93%
    01:00 +15°C° 0.7 mm 5 mps 734 mmHg 93%
    02:00 +15°C° 0.7 mm 6 mps 733 mmHg 93%
    03:00 +15°C° 0.7 mm 7 mps 733 mmHg 94%
    04:00 +15°C° 0.3 mm 7 mps 733 mmHg 92%
    05:00 +15°C° 0.3 mm 7 mps 733 mmHg 91%
    06:00 +15°C° 0.3 mm 7 mps 733 mmHg 90%
    07:00 +16°C° 0.3 mm 7 mps 733 mmHg 87%
    08:00 +16°C° 0.3 mm 6 mps 733 mmHg 85%
    09:00 +16°C° 0.3 mm 6 mps 734 mmHg 83%
    10:00 +17°C° 0.3 mm 7 mps 734 mmHg 78%
    11:00 +17°C° 0.3 mm 8 mps 734 mmHg 73%
    12:00 +18°C° 0.3 mm 9 mps 734 mmHg 68%
    13:00 +17°C° 0.2 mm 9 mps 734 mmHg 67%
    14:00 +17°C° 0.2 mm 9 mps 734 mmHg 65%
    15:00 +16°C° 0.2 mm 9 mps 734 mmHg 64%
    16:00 +15°C° 0.2 mm 8 mps 734 mmHg 69%
    17:00 +14°C° 0.2 mm 7 mps 734 mmHg 74%
    18:00 +13°C° 0.2 mm 6 mps 735 mmHg 79%
    19:00 +13°C° 0 mm 6 mps 735 mmHg 79%
    20:00 +11°C° 0 mm 6 mps 735 mmHg 80%
    21:00 +11°C° 0 mm 7 mps 735 mmHg 80%
    22:00 +11°C° 0 mm 7 mps 735 mmHg 81%
    23:00 +11°C° 0 mm 7 mps 735 mmHg 81%
    Show more